EW9762 Weather Reports


Display with metric or nautical units.
time (UTC)temp
F
wind
direction
speed
MPH
gust
MPH
rain 1hr
in
rain 24hr
in
rain mn
in
humidity
%
barometer
mb
20190320072057 44 117 9.0 17.0 0.00 0.00 0.00 71 1028.3
20190320071557 44 94 11.0 17.0 0.00 0.00 0.00 67 1028.3
20190320071057 44 90 9.0 16.0 0.00 0.00 0.00 68 1028.3
20190320070556 43 85 9.0 17.0 0.00 0.00 0.00 71 1028.5
20190320070054 44 94 9.0 17.0 0.00 0.00 0.00 69 1028.5
20190320065555 43 83 10.0 15.0 0.00 0.00 0.00 69 1028.5
20190320065054 43 107 10.0 16.0 0.00 0.00 0.00 70 1028.6
20190320064554 43 110 8.0 16.0 0.00 0.00 0.00 68 1028.5
20190320064054 43 44 9.0 16.0 0.00 0.00 0.00 70 1028.6
20190320063554 44 110 10.0 15.0 0.00 0.00 0.00 71 1028.6
20190320063054 44 90 7.0 18.0 0.00 0.00 0.00 71 1028.7
20190320062554 44 72 10.0 16.0 0.00 0.00 0.00 67 1028.9
20190320062054 44 61 8.0 15.0 0.00 0.00 0.00 70 1029.0
20190320061554 44 114 7.0 16.0 0.00 0.00 0.00 72 1029.1
20190320061054 44 52 8.0 18.0 0.00 0.00 0.00 72 1029.1
20190320060553 43 110 11.0 18.0 0.00 0.00 0.00 72 1029.1
20190320060053 43 107 10.0 17.0 0.00 0.00 0.00 71 1029.0
20190320055554 44 114 10.0 18.0 0.00 0.00 0.00 70 1029.1
20190320055055 44 94 12.0 18.0 0.00 0.00 0.00 70 1029.1
20190320054555 44 104 10.0 17.0 0.00 0.00 0.00 69 1029.1
20190320054055 44 114 10.0 16.0 0.00 0.00 0.00 69 1029.1
20190320053554 44 111 9.0 16.0 0.00 0.00 0.00 71 1029.2
20190320053055 44 100 11.0 19.0 0.00 0.00 0.00 69 1029.3
20190320052554 44 82 12.0 19.0 0.00 0.00 0.00 68 1029.1
20190320052054 44 99 13.0 17.0 0.00 0.00 0.00 68 1029.1
20190320051554 43 96 12.0 16.0 0.00 0.00 0.00 69 1029.2
20190320051053 44 116 11.0 17.0 0.00 0.00 0.00 70 1029.2
20190320050553 44 100 9.0 17.0 0.00 0.00 0.00 69 1029.1
20190320050054 43 113 10.0 15.0 0.00 0.00 0.00 69 1029.2
20190320045553 44 131 9.0 17.0 0.00 0.00 0.00 69 1029.4
20190320045053 44 102 10.0 17.0 0.00 0.00 0.00 70 1029.5
20190320044553 44 102 9.0 17.0 0.00 0.00 0.00 71 1029.3
20190320044053 44 97 9.0 17.0 0.00 0.00 0.00 69 1029.4
20190320043553 44 83 11.0 16.0 0.00 0.00 0.00 68 1029.5
20190320043051 44 135 9.0 16.0 0.00 0.00 0.00 70 1029.6
20190320042552 44 124 11.0 17.0 0.00 0.00 0.00 67 1029.6
20190320042052 43 96 9.0 18.0 0.00 0.00 0.00 68 1029.6
20190320041552 44 106 10.0 17.0 0.00 0.00 0.00 67 1029.5
20190320041053 44 111 9.0 17.0 0.00 0.00 0.00 67 1029.7
20190320040553 44 94 11.0 17.0 0.00 0.00 0.00 67 1029.7
20190320040052 43 86 9.0 17.0 0.00 0.00 0.00 67 1029.8
20190320035551 43 116 8.0 15.0 0.00 0.00 0.00 67 1029.8
20190320035052 44 152 11.0 17.0 0.00 0.00 0.00 66 1029.9
20190320034551 44 94 9.0 17.0 0.00 0.00 0.00 65 1029.8
20190320034051 44 82 11.0 17.0 0.00 0.00 0.00 65 1029.8
20190320033551 43 87 9.0 17.0 0.00 0.00 0.00 67 1029.8
20190320033050 44 90 12.0 17.0 0.00 0.00 0.00 68 1029.8
20190320032551 44 107 10.0 15.0 0.00 0.00 0.00 68 1030.0
20190320032049 44 78 9.0 15.0 0.00 0.00 0.00 66 1030.0
20190320031550 44 110 9.0 15.0 0.00 0.00 0.00 68 1030.0
20190320031049 43 148 9.0 15.0 0.00 0.00 0.00 67 1030.0
20190320030549 44 80 8.0 15.0 0.00 0.00 0.00 67 1029.9
20190320030049 44 103 10.0 14.0 0.00 0.00 0.00 66 1030.0
20190320025549 44 69 11.0 14.0 0.00 0.00 0.00 65 1030.1
20190320025050 44 110 9.0 15.0 0.00 0.00 0.00 67 1029.9
20190320024548 44 63 10.0 15.0 0.00 0.00 0.00 67 1029.9
20190320024049 44 130 9.0 13.0 0.00 0.00 0.00 67 1029.9
20190320023548 44 78 8.0 13.0 0.00 0.00 0.00 65 1029.9
20190320023049 44 97 8.0 13.0 0.00 0.00 0.00 65 1029.9
20190320022549 43 117 8.0 13.0 0.00 0.00 0.00 65 1029.9
20190320022049 44 107 8.0 13.0 0.00 0.00 0.00 66 1030.0
20190320021549 44 94 9.0 13.0 0.00 0.00 0.00 62 1030.0
20190320021048 44 103 8.0 15.0 0.00 0.00 0.00 65 1030.1
20190320020548 44 93 9.0 14.0 0.00 0.00 0.00 66 1030.0
20190320020048 44 34 10.0 14.0 0.00 0.00 0.00 68 1030.1
20190320015549 44 65 6.0 15.0 0.00 0.00 0.00 69 1030.0
20190320015048 44 76 11.0 15.0 0.00 0.00 0.00 67 1030.0
20190320014548 44 109 9.0 14.0 0.00 0.00 0.00 66 1030.0
20190320014047 44 73 6.0 14.0 0.00 0.00 0.00 67 1029.9
20190320013548 44 110 9.0 15.0 0.00 0.00 0.00 69 1030.1
20190320013047 44 99 9.0 15.0 0.00 0.00 0.00 66 1030.1
20190320012547 44 97 11.0 14.0 0.00 0.00 0.00 63 1030.0
20190320012048 44 96 9.0 13.0 0.00 0.00 0.00 63 1030.0
20190320011547 44 103 8.0 13.0 0.00 0.00 0.00 64 1030.0
20190320011047 44 118 9.0 13.0 0.00 0.00 0.00 63 1030.0
20190320010547 44 111 7.0 14.0 0.00 0.00 0.00 62 1030.0
20190320010046 44 93 6.0 12.0 0.00 0.00 0.00 63 1030.0
20190320005547 44 106 5.0 11.0 0.00 0.00 0.00 61 1030.0
20190320005047 43 92 7.0 10.0 0.00 0.00 0.00 62 1030.0
20190320004546 44 130 8.0 11.0 0.00 0.00 0.00 59 1029.9
20190320004046 44 97 6.0 10.0 0.00 0.00 0.00 65 1029.9
20190320003546 44 87 4.0 9.0 0.00 0.00 0.00 64 1029.9
20190320003046 44 102 6.0 11.0 0.00 0.00 0.00 63 1029.9
20190320002546 44 86 8.0 14.0 0.00 0.00 0.00 65 1029.9
20190320002046 44 121 7.0 14.0 0.00 0.00 0.00 63 1029.8
20190320001546 44 124 6.0 11.0 0.00 0.00 0.00 65 1029.8
20190320001046 44 123 6.0 10.0 0.00 0.00 0.00 67 1029.8
20190320000545 44 142 6.0 10.0 0.00 0.00 0.00 64 1029.7
20190320000046 44 118 4.0 10.0 0.00 0.00 0.00 64 1029.7
20190319235546 44 142 5.0 12.0 0.00 0.00 0.00 66 1029.7
20190319235047 45 123 5.0 13.0 0.00 0.00 0.00 65 1029.6
20190319234546 46 56 8.0 13.0 0.00 0.00 0.00 58 1029.6
20190319234046 46 62 7.0 13.0 0.00 0.00 0.00 56 1029.7
20190319233545 45 62 7.0 13.0 0.00 0.00 0.00 55 1029.7
20190319233045 45 61 6.0 11.0 0.00 0.00 0.00 55 1029.7
20190319232544 46 47 6.0 10.0 0.00 0.00 0.00 53 1029.8
20190319232044 46 32 7.0 12.0 0.00 0.00 0.00 55 1029.8
20190319231544 46 51 8.0 12.0 0.00 0.00 0.00 51 1029.9
20190319231044 46 66 8.0 12.0 0.00 0.00 0.00 53 1029.8
20190319230544 46 39 8.0 13.0 0.00 0.00 0.00 51 1029.8
20190319230044 46 59 8.0 14.0 0.00 0.00 0.00 53 1029.7
20190319225544 47 39 10.0 14.0 0.00 0.00 0.00 47 1029.6
20190319225044 47 52 8.0 13.0 0.00 0.00 0.00 49 1029.6
20190319224544 47 61 9.0 13.0 0.00 0.00 0.00 47 1029.6
20190319224042 47 66 8.0 11.0 0.00 0.00 0.00 48 1029.6
20190319223544 47 72 5.0 12.0 0.00 0.00 0.00 49 1029.6
20190319223043 48 55 6.0 15.0 0.00 0.00 0.00 47 1029.5
20190319222543 48 38 9.0 15.0 0.00 0.00 0.00 43 1029.5
20190319222043 47 47 9.0 14.0 0.00 0.00 0.00 44 1029.5
20190319221543 48 54 9.0 13.0 0.00 0.00 0.00 44 1029.6
20190319221043 48 35 7.0 13.0 0.00 0.00 0.00 44 1029.8
20190319220542 48 51 8.0 15.0 0.00 0.00 0.00 44 1029.8
20190319220042 48 35 10.0 15.0 0.00 0.00 0.00 39 1029.8
20190319215543 47 63 7.0 13.0 0.00 0.00 0.00 45 1029.7
20190319215042 47 37 9.0 14.0 0.00 0.00 0.00 41 1029.8
20190319214542 47 47 8.0 16.0 0.00 0.00 0.00 42 1029.7
20190319214042 47 25 12.0 16.0 0.00 0.00 0.00 41 1029.7
20190319213542 48 41 9.0 15.0 0.00 0.00 0.00 43 1029.7
20190319213042 48 38 10.0 14.0 0.00 0.00 0.00 43 1029.7
20190319212541 48 34 10.0 15.0 0.00 0.00 0.00 41 1029.7
20190319212042 48 49 10.0 15.0 0.00 0.00 0.00 40 1029.8
20190319211542 49 66 9.0 15.0 0.00 0.00 0.00 41 1029.7
20190319211041 48 59 9.0 15.0 0.00 0.00 0.00 42 1029.7
20190319210541 48 49 10.0 16.0 0.00 0.00 0.00 39 1029.7
20190319210041 48 52 10.0 15.0 0.00 0.00 0.00 42 1029.7
20190319205541 48 49 10.0 15.0 0.00 0.00 0.00 41 1029.5
20190319205041 48 69 8.0 14.0 0.00 0.00 0.00 42 1029.6
20190319204541 48 52 10.0 13.0 0.00 0.00 0.00 46 1029.6
20190319204041 49 63 9.0 13.0 0.00 0.00 0.00 42 1029.5
20190319203541 49 37 7.0 15.0 0.00 0.00 0.00 45 1029.5
20190319203041 49 38 8.0 15.0 0.00 0.00 0.00 41 1029.6
20190319202540 49 24 8.0 13.0 0.00 0.00 0.00 42 1029.6
20190319202041 50 48 7.0 13.0 0.00 0.00 0.00 40 1029.7
20190319201541 49 55 8.0 12.0 0.00 0.00 0.00 41 1029.7
20190319201040 49 52 8.0 12.0 0.00 0.00 0.00 43 1029.7
20190319200540 50 48 6.0 11.0 0.00 0.00 0.00 46 1029.7
20190319200040 50 52 7.0 13.0 0.00 0.00 0.00 46 1029.7
20190319195540 50 51 7.0 13.0 0.00 0.00 0.00 42 1029.6
20190319195040 50 61 7.0 14.0 0.00 0.00 0.00 46 1029.6
20190319194540 50 72 9.0 14.0 0.00 0.00 0.00 42 1029.6
20190319194040 51 65 8.0 13.0 0.00 0.00 0.00 47 1029.6
20190319193540 49 45 9.0 13.0 0.00 0.00 0.00 46 1029.5
20190319193040 51 58 9.0 15.0 0.00 0.00 0.00 43 1029.7
20190319192539 50 44 9.0 16.0 0.00 0.00 0.00 51 1029.6
20190319192039 49 31 11.0 16.0 0.00 0.00 0.00 44 1029.7
20190319191539 50 61 8.0 15.0 0.00 0.00 0.00 49 1029.8
20190319191039 50 32 10.0 15.0 0.00 0.00 0.00 46 1029.7
20190319190539 50 45 10.0 15.0 0.00 0.00 0.00 48 1029.7
20190319190039 51 63 8.0 15.0 0.00 0.00 0.00 44 1029.8
20190319185538 51 61 9.0 13.0 0.00 0.00 0.00 46 1029.9
20190319185038 52 52 6.0 13.0 0.00 0.00 0.00 47 1030.1
20190319184539 51 62 8.0 13.0 0.00 0.00 0.00 49 1030.2
20190319184039 50 47 8.0 13.0 0.00 0.00 0.00 43 1030.3
20190319183539 51 69 8.0 12.0 0.00 0.00 0.00 45 1030.5
20190319183039 52 69 6.0 12.0 0.00 0.00 0.00 53 1030.5
20190319182539 51 59 7.0 12.0 0.00 0.00 0.00 51 1030.7
20190319182039 51 68 6.0 12.0 0.00 0.00 0.00 49 1030.8
20190319181538 50 59 7.0 13.0 0.00 0.00 0.00 52 1030.8
20190319181039 50 41 8.0 13.0 0.00 0.00 0.00 49 1030.9
20190319180538 50 44 9.0 14.0 0.00 0.00 0.00 51 1030.9
20190319180038 50 55 9.0 14.0 0.00 0.00 0.00 47 1031.0
20190319175538 50 48 7.0 14.0 0.00 0.00 0.00 52 1031.1
20190319175039 49 51 10.0 13.0 0.00 0.00 0.00 49 1031.2
20190319174538 50 37 8.0 14.0 0.00 0.00 0.00 53 1031.2
20190319174038 49 37 7.0 14.0 0.00 0.00 0.00 53 1031.4
20190319173538 50 31 7.0 12.0 0.00 0.00 0.00 55 1031.4
20190319173038 50 20 8.0 12.0 0.00 0.00 0.00 51 1031.5
20190319172537 49 34 9.0 13.0 0.00 0.00 0.00 51 1031.5
20190319172038 49 37 7.0 13.0 0.00 0.00 0.00 52 1031.5
20190319171537 49 34 9.0 13.0 0.00 0.00 0.00 52 1031.6
20190319171037 49 49 9.0 14.0 0.00 0.00 0.00 51 1031.6
20190319170537 48 51 10.0 14.0 0.00 0.00 0.00 49 1031.6
20190319170037 48 38 9.0 15.0 0.00 0.00 0.00 53 1031.6
20190319165537 48 32 11.0 15.0 0.00 0.00 0.00 51 1031.6
20190319165037 48 62 10.0 16.0 0.00 0.00 0.00 54 1031.5
20190319164537 48 47 12.0 16.0 0.00 0.00 0.00 55 1031.5
20190319164036 48 35 12.0 15.0 0.00 0.00 0.00 53 1031.6
20190319163536 48 51 10.0 15.0 0.00 0.00 0.00 56 1031.5
20190319163036 49 35 11.0 15.0 0.00 0.00 0.00 55 1031.6
20190319162536 48 47 11.0 15.0 0.00 0.00 0.00 52 1031.6
20190319162036 48 31 11.0 15.0 0.00 0.00 0.00 53 1031.6
20190319161536 48 37 11.0 15.0 0.00 0.00 0.00 54 1031.7
20190319161036 48 41 8.0 16.0 0.00 0.00 0.00 56 1031.7
20190319160536 48 14 12.0 17.0 0.00 0.00 0.00 57 1031.7
20190319160034 48 31 10.0 14.0 0.00 0.00 0.00 56 1031.7
20190319155534 48 0 7.0 16.0 0.00 0.00 0.00 58 1031.8
20190319155034 47 24 12.0 16.0 0.00 0.00 0.00 59 1031.8
20190319154534 47 38 9.0 14.0 0.00 0.00 0.00 63 1031.8
20190319154034 47 34 7.0 12.0 0.00 0.00 0.00 62 1031.9
20190319153534 47 48 6.0 12.0 0.00 0.00 0.00 65 1032.0
20190319153034 47 0 7.0 15.0 0.00 0.00 0.00 66 1031.9
20190319152534 47 23 9.0 17.0 0.00 0.00 0.00 68 1031.8
20190319152034 47 27 9.0 17.0 0.00 0.00 0.00 69 1031.8
20190319151533 46 0 8.0 13.0 0.00 0.00 0.00 71 1031.7
20190319151033 46 347 7.0 13.0 0.00 0.00 0.00 76 1031.7
20190319150533 46 337 8.0 16.0 0.00 0.00 0.00 76 1031.5
20190319150033 46 49 9.0 16.0 0.00 0.00 0.00 74 1031.5
20190319145533 46 11 6.0 14.0 0.00 0.00 0.00 79 1031.5
20190319145033 46 27 7.0 13.0 0.00 0.00 0.00 76 1031.5
20190319144533 46 10 5.0 13.0 0.00 0.00 0.00 77 1031.5
20190319144032 46 55 7.0 13.0 0.00 0.00 0.00 77 1031.5
20190319143532 46 0 5.0 12.0 0.00 0.00 0.00 82 1031.4
20190319143033 46 3 7.0 12.0 0.00 0.00 0.00 78 1031.4
20190319142532 45 0 6.0 11.0 0.00 0.00 0.00 82 1031.4
20190319142033 45 323 7.0 11.0 0.00 0.00 0.00 79 1031.4
20190319141533 45 350 6.0 12.0 0.00 0.00 0.00 80 1031.3
20190319141033 46 0 5.0 11.0 0.00 0.00 0.00 77 1031.2
20190319140532 45 341 6.0 12.0 0.00 0.00 0.00 80 1031.0
20190319140032 45 351 8.0 13.0 0.00 0.00 0.00 80 1030.9
20190319135532 46 345 4.0 14.0 0.00 0.00 0.00 79 1031.0
20190319135031 46 62 6.0 15.0 0.00 0.00 0.00 71 1031.0
20190319134530 45 63 11.0 16.0 0.00 0.00 0.00 69 1031.0
20190319134031 45 13 8.0 14.0 0.00 0.00 0.00 72 1031.0
20190319133530 45 38 10.0 15.0 0.00 0.00 0.00 69 1031.0
20190319133030 45 49 11.0 16.0 0.00 0.00 0.00 70 1031.0
20190319132531 45 39 9.0 16.0 0.00 0.00 0.00 73 1030.9
20190319132033 45 41 9.0 15.0 0.00 0.00 0.00 74 1030.8
20190319131533 45 354 9.0 15.0 0.00 0.00 0.00 74 1030.8
20190319131033 44 44 11.0 15.0 0.00 0.00 0.00 76 1030.7
20190319130531 44 0 7.0 14.0 0.00 0.00 0.00 78 1030.8
20190319130030 44 30 10.0 14.0 0.00 0.00 0.00 77 1030.7
20190319125530 44 45 6.0 15.0 0.00 0.00 0.00 79 1030.5
20190319125030 44 41 9.0 13.0 0.00 0.00 0.00 79 1030.6
20190319124530 44 17 4.0 11.0 0.00 0.00 0.00 81 1030.5
20190319124030 44 24 5.0 12.0 0.00 0.00 0.00 81 1030.5
20190319123530 44 35 7.0 12.0 0.00 0.00 0.00 82 1030.4
20190319123030 44 18 5.0 12.0 0.00 0.00 0.00 81 1030.4
20190319122530 44 30 5.0 14.0 0.00 0.00 0.00 80 1030.5
20190319122030 44 39 5.0 14.0 0.00 0.00 0.00 81 1030.4
20190319121530 43 14 9.0 15.0 0.00 0.00 0.00 82 1030.5
20190319121030 43 32 8.0 15.0 0.00 0.00 0.00 81 1030.4
20190319120529 43 39 12.0 15.0 0.00 0.00 0.00 80 1030.5
20190319120029 43 32 8.0 12.0 0.00 0.00 0.00 83 1030.4
20190319115529 43 34 8.0 12.0 0.00 0.00 0.00 83 1030.4
20190319115029 42 27 6.0 12.0 0.00 0.00 0.00 83 1030.3
20190319114529 42 52 4.0 13.0 0.00 0.00 0.00 84 1030.3
20190319114029 42 45 6.0 12.0 0.00 0.00 0.00 84 1030.3
20190319113529 42 51 7.0 13.0 0.00 0.00 0.00 86 1030.3
20190319113029 42 55 5.0 13.0 0.00 0.00 0.00 87 1030.2
20190319112530 42 45 6.0 10.0 0.00 0.00 0.00 87 1030.2
20190319112029 42 14 4.0 11.0 0.00 0.00 0.00 86 1030.2
20190319111529 42 350 6.0 10.0 0.00 0.00 0.00 89 1030.3
20190319111030 42 0 3.0 9.0 0.00 0.00 0.00 91 1030.1
20190319110529 42 341 4.0 9.0 0.00 0.00 0.00 91 1030.1
20190319110030 42 0 4.0 12.0 0.00 0.00 0.00 90 1030.2
20190319105528 41 32 4.0 10.0 0.00 0.00 0.00 90 1030.2
20190319105028 41 358 4.0 9.0 0.00 0.00 0.00 91 1030.0
20190319104529 41 1 4.0 9.0 0.00 0.00 0.00 91 1030.0
20190319104029 41 348 3.0 6.0 0.00 0.00 0.00 92 1029.9
20190319103529 41 357 4.0 7.0 0.00 0.00 0.00 92 1029.7
20190319103028 41 4 4.0 7.0 0.00 0.00 0.00 92 1029.6
20190319102528 41 355 3.0 6.0 0.00 0.00 0.00 91 1029.6
20190319102028 41 351 3.0 6.0 0.00 0.00 0.00 91 1029.5
20190319101528 41 20 4.0 7.0 0.00 0.00 0.00 90 1029.5
20190319101028 41 3 4.0 7.0 0.00 0.00 0.00 88 1029.5
20190319100528 41 0 3.0 9.0 0.00 0.00 0.00 89 1029.4
20190319100027 41 45 4.0 9.0 0.00 0.00 0.00 89 1029.3
20190319095527 41 8 3.0 9.0 0.00 0.00 0.00 89 1029.4
20190319095027 41 357 4.0 9.0 0.00 0.00 0.00 89 1029.2
20190319094526 40 0 3.0 11.0 0.00 0.00 0.00 89 1029.3
20190319094026 40 351 5.0 11.0 0.00 0.00 0.00 89 1029.2
20190319093526 40 353 3.0 6.0 0.00 0.00 0.00 88 1029.2
20190319093025 40 0 3.0 6.0 0.00 0.00 0.00 88 1029.1
20190319092526 40 348 4.0 9.0 0.00 0.00 0.00 88 1029.1
20190319092025 40 14 3.0 9.0 0.00 0.00 0.00 88 1029.1
20190319091525 40 11 4.0 6.0 0.00 0.00 0.00 88 1029.0
20190319091026 40 353 4.0 7.0 0.00 0.00 0.00 89 1029.1
20190319090526 40 345 3.0 7.0 0.00 0.00 0.00 88 1028.9
20190319090026 40 347 4.0 6.0 0.00 0.00 0.00 90 1028.9
20190319085524 40 348 4.0 6.0 0.00 0.00 0.00 90 1028.7
20190319085025 40 0 3.0 7.0 0.00 0.00 0.00 89 1028.7
20190319084525 40 350 4.0 11.0 0.00 0.00 0.00 89 1028.8
20190319084025 40 331 4.0 10.0 0.00 0.00 0.00 89 1028.8
20190319083525 40 347 5.0 10.0 0.00 0.00 0.00 89 1028.7
20190319083025 41 353 5.0 10.0 0.00 0.00 0.00 87 1028.5
20190319082525 40 0 6.0 10.0 0.00 0.00 0.00 83 1028.4
20190319082025 40 1 4.0 6.0 0.00 0.00 0.00 87 1028.4
20190319081524 40 11 4.0 6.0 0.00 0.00 0.00 86 1028.5
20190319081023 40 354 4.0 7.0 0.00 0.00 0.00 85 1028.6
20190319080524 40 0 3.0 7.0 0.00 0.00 0.00 85 1028.6
20190319080023 40 0 3.0 6.0 0.00 0.00 0.00 86 1028.5
20190319075524 40 17 3.0 7.0 0.00 0.00 0.00 84 1028.5
20190319075024 41 0 4.0 10.0 0.00 0.00 0.00 82 1028.4
20190319074524 41 21 5.0 9.0 0.00 0.00 0.00 83 1028.4
20190319074023 40 13 3.0 10.0 0.00 0.00 0.00 84 1028.3
20190319073523 40 0 4.0 10.0 0.00 0.00 0.00 85 1028.5
20190319073023 40 14 4.0 7.0 0.00 0.00 0.00 84 1028.5
20190319072523 40 0 3.0 7.0 0.00 0.00 0.00 87 1028.6